Regional Weather Roundup
Issued by NWS

Home | Current Version | Previous Version | Text Only | Print | Product List | Glossary Off
Versions: 1 2 3 4 5 6 7 8 9 10 11 12 13 14 15 16 17 18 19 20 21 22 23 24 25 26 27 28 29 30 31 32 33 34 35 36 37 38 39 40 41 42 43 44 45 46 47 48 49 50

000
ASUS43 KLOT 061800
RWRIL

ILLINOIS REGIONAL WEATHER ROUNDUP
NATIONAL WEATHER SERVICE CHICAGO/ROMEOVILLE IL
100 PM CDT MON JUL 06 2015

NOTE: "FAIR" INDICATES FEW OR NO CLOUDS BELOW 12,000 FEET WITH NO
SIGNIFICANT WEATHER AND/OR OBSTRUCTIONS TO VISIBILITY.

* THESE STATIONS ARE NOT UNDER NWS QUALITY CONTROL. THEY ALSO MAY NOT
  REPORT WEATHER SUCH AS PRECIPITATION OR FOG.

ILZ001-002-007-009-015-016-024-061900-
NORTHWEST ILLINOIS

CITY           SKY/WX    TMP DP  RH WIND       PRES   REMARKS
MOLINE         CLOUDY    81  72  74 S10       29.89F HX  85
6HR MIN TEMP:  73; 6HR MAX TEMP:  81;

STERLING*      CLOUDY    75  72  88 CALM      29.91F
$$

ILZ003-004-008-010-011-017-018-061900-
NORTH CENTRAL ILLINOIS

CITY           SKY/WX    TMP DP  RH WIND       PRES   REMARKS
ROCKFORD       TSTM      72  70  93 SE8       29.93F
6HR MIN TEMP:  68; 6HR MAX TEMP:  82; 6HR PCP:  0.23;

$$

ILZ005-006-012>014-019>023-061900-
NORTHEAST ILLINOIS

CITY           SKY/WX    TMP DP  RH WIND       PRES   REMARKS
CHICAGO-OHARE  CLOUDY    83  70  64 SW15      29.91F HX  87
6HR MIN TEMP:  69; 6HR MAX TEMP:  83;

CHICAGO-MIDWAY CLOUDY    86  68  54 S17G26    29.92F HX  89
6HR MIN TEMP:  72; 6HR MAX TEMP:  86;

AURORA         CLOUDY    85  71  63 S13G21    29.92F HX  90
6HR MIN TEMP:  69; 6HR MAX TEMP:  85;

WAUKEGAN       CLOUDY    85  71  63 S16       29.90F HX  90
6HR MIN TEMP:  69; 6HR MAX TEMP:  85;

DUPAGE AIRPORT PTSUNNY   83  71  67 S16       29.92F HX  87
6HR MIN TEMP:  68; 6HR MAX TEMP:  85;

WHEELING       CLOUDY    85  70  60 SW15G23   29.92F HX  89
6HR MIN TEMP:  69; 6HR MAX TEMP:  85;

NORTHERLY ISL    N/A     83  67  58 S12         N/A  HX  85
$$

LMZ740>746-061900-
SOUTHERN LAKE MICHIGAN

STATION/POSITION SKY/WX   TEMP    WIND        PRES    VSBY  WAVE
                          AIR SEA DIR/SP/G                  HT/PER
                          (F)     (DEG/KT/KT) (MB)    (MI)  (FT/S)
HARRISON CRIB              78     190/ 20/ 23   N/A
BURNHAM HARBOR             81     190/ 17/ 17   N/A
CALUMET HARBOR             81     180/  9/ 15   N/A
BURNS HARBOR               81     190/ 14/ 21 1015.9F
MICHIGAN CITY              79     160/ 11/ 15   N/A
MICHIGAN CITY 6N           75 67  190/ 10/ 14   N/A           1
ST. JOSEPH                 71 66  220/  6/  6   N/A           1
$$

ILZ025>027-034>036-040-047-049-050-058-095>099-061900-
WEST-CENTRAL ILLINOIS

CITY           SKY/WX    TMP DP  RH WIND       PRES   REMARKS
QUINCY         CLOUDY    83  74  74 S13       29.94S HX  89
$$

ILZ028>032-037-038-041>044-048-051>054-059>061-061900-
CENTRAL ILLINOIS

CITY           SKY/WX    TMP DP  RH WIND       PRES   REMARKS
DECATUR        PTSUNNY   85  73  67 S15       29.97F HX  91
PEORIA         PTSUNNY   86  75  69 S12       29.94S HX  95
6HR MIN TEMP:  74; 6HR MAX TEMP:  87;

SPRINGFIELD    PTSUNNY   87  75  67 S12       29.96F HX  96
6HR MIN TEMP:  73; 6HR MAX TEMP:  88;

TAYLORVILLE    NOT AVBL
$$

ILZ033-039-045-046-055>057-062-063-061900-
EAST-CENTRAL ILLINOIS

CITY           SKY/WX    TMP DP  RH WIND       PRES   REMARKS
CHAMPAIGN      PTSUNNY   85  73  67 S14       29.98F HX  91
MATTOON        MOSUNNY   83  72  69 S13G18    30.00F HX  88
$$

ILZ079-100>102-061900-
SOUTHWEST ILLINOIS

CITY           SKY/WX    TMP DP  RH WIND       PRES   REMARKS
ALTON          PTSUNNY   86  79  79 S8        29.98F HX  99
BELLEVILLE     PTSUNNY   87  79  77 S10       29.98F HX 100
CAHOKIA*       MOSUNNY   90  74  59 VRB5G17   29.97F HX  99
$$

ILZ064>066-069>071-074>076-080>082-084>086-088>090-092>094-061900-
SOUTH-CENTRAL ILLINOIS

CITY           SKY/WX    TMP DP  RH WIND       PRES   REMARKS
CARBONDALE     PTSUNNY   83  73  72 S14       30.04F HX  89
6HR MIN TEMP:  74; 6HR MAX TEMP:  83;

MARION         PTSUNNY   84  75  74 S12       30.05F HX  92
MT. VERNON     CLOUDY    82  72  69 S14       30.03F HX  87
$$

ILZ067-068-072-073-078-083-087-091-061900-
SOUTHEAST ILLINOIS

CITY           SKY/WX    TMP DP  RH WIND       PRES   REMARKS
LAWRENCEVILLE  MOSUNNY   84  72  67 S13       30.03F HX  89
$$

ABBREVIATIONS USED IN REMARKS
   TC - TEMPERATURE IN CELSIUS
  WCI - WIND CHILL INDEX
   HX - HEAT INDEX
  VSB - VISIBILITY
$$



USA.gov is the U.S. government's official web portal to all federal, state and local government web resources and services.